Tracking 32139 objects as of 15-Nov-2025
HD Live streaming from Space Station
objects crossing your sky now

STARLINK-35623

Track STARLINK-35623 now!
10-day predictions
STARLINK-35623 is classified as:


NORAD ID: 66138
Int'l Code: 2025-237AA
Perigee: 424.9 km
Apogee: 426.3 km
Inclination: 53.2 °
Period: 92.9 minutes
Semi major axis: 6796 km
RCS: Unknown
Launch date: October 22, 2025
Source: United States (US)
Launch site: AIR FORCE WESTERN TEST RANGE (AFWTR)
Your satellite tracking list
Your tracking list is empty




NASA's NSSDC Master Catalog

Two Line Element Set (TLE):
1 66138U 25237AA  25319.50003471 -.00234263  00000-0 -43142-2 0  9991
2 66138  53.1600 215.9059 0001039  74.0362 320.2192 15.49421245  5109
Source of the keplerian elements: AFSPC